Погода в Подпорожье

Россия / Санкт-Петербург и Ленинградская область     60°54′46″N   34°09′24″E
темп.,
°C
ветер,
м/с
пор.,
м/с
влажн.,
%
обл.,
%
осадки,
мм/ч
давл.,
гПа
погр.,
м
8 марта, пн
пн800:00−9св51291100 0.4 996808
03:00−11ссв5139099 0.6 1000664
06:00−14ссв51391100 0.1 1003561
09:00−16ссв41292100 0.1 1006453
12:00−14ссв489292 0.0 1009433
15:00−13ссв379093 0.0 1011504
18:00−17ссв2793100 0.0 1013257
21:00−21ссв269781 0.0 1015140
9 марта, вт
вт900:00−23ссв249880 0.0 101782
03:00−26ссв239877 0.0 101961
06:00−29ссв239857 0.0 102042
09:00−26св369869 0.0 1022211
12:00−21св259598 0.0 1023387
15:00−18св249097 0.0 1024431
18:00−21св239644 0.0 102552
21:00−26св229222 0.0 102720
10 марта, ср
ср1000:00−27всв11920 0.0 102819
03:00−26з11880 0.0 102919
06:00−24з228534 0.0 102920
09:00−21з128660 0.0 102970
12:00−13зсз237673 0.0 1029352
15:00−10зсз248270 0.0 1029445
18:00−12зсз129223 0.0 102821
21:00−17сз119111 0.0 102920
11 марта, чт
чт1100:00−20зюз11890 0.0 102920
03:00−20зюз12910 0.0 102920
06:00−22ююз12940 0.0 102820
09:00−18ю11940 0.0 102871
12:00−10ююз24880 0.0 1026350
15:00−7ю37810 0.0 1024787
18:00−10ююв38880 0.0 1021272
21:00−11ю3118836 0.0 1020515
12 марта, пт
пт1200:00−13ю3108995 0.0 1019352
03:00−15ю289355 0.0 1017188
06:00−16ююв39940 0.0 1015194
09:00−13юв39910 0.0 1013291
12:00−7юв410861 0.0 1011521
15:00−5юв511810 0.0 1008671
18:00−7юв4118819 0.0 1007740
21:00−10вюв3139158 0.0 1006564